Regional Weather Roundup
Issued by NWS Upton, NY

Home | Current Version | Previous Version | Text Only | Print | Product List | Glossary On
Versions: 1 2 3 4 5 6 7 8 9 10 11 12 13 14 15 16 17 18 19 20 21 22 23 24 25 26 27 28 29 30 31 32 33 34 35 36 37 38 39 40 41 42 43 44 45 46 47 48 49 50
946
ASUS41 KOKX 070004
RWROKX

REGIONAL WEATHER ROUNDUP
NATIONAL WEATHER SERVICE NEW YORK NY
800 PM EDT FRI MAY 06 2016

NOTE: "FAIR" INDICATES FEW OR NO CLOUDS BELOW 12,000 FEET WITH NO
SIGNIFICANT WEATHER AND/OR OBSTRUCTIONS TO VISIBILITY.

NYZ071-072-176-178-NJZ106-104-070100-
NEW YORK CITY METRO AREA


CITY           SKY/WX    TMP DP  RH WIND       PRES   REMARKS
CENTRAL PARK   CLOUDY    51  47  86 NE8       29.81R
LAGUARDIA APRT CLOUDY    52  50  93 E15       29.79R
KENNEDY INTL   CLOUDY    49  47  93 E20       29.80S
NEWARK/LIBERTY LGT RAIN  50  48  93 E9        29.78R FOG
BRNX BOT. GARD   N/A     50  48  93 CALM      29.78S
TETERBORO      LGT RAIN  51  47  86 NE9       29.78R FOG
$$

NYZ177-179-078>081-070100-
LONG ISLAND NEW YORK

CITY           SKY/WX    TMP DP  RH WIND       PRES   REMARKS
FARMINGDALE    CLOUDY    49  46  90 E10       29.81R
ISLIP          CLOUDY    49  45  86 E10       29.82R
SHIRLEY        CLOUDY    48  46  93 E7        29.83R
RIVERHEAD        N/A     48  46  93 SE1       29.83R
WESTHAMPTON    CLOUDY    43  43 100 E13G20    29.84R
EAST HAMPTON   LGT RAIN  46  45  95 E13       29.82F
MONTAUK POINT    N/A     46  45  96 E10G17    29.87S
$$

NYZ052-065-067-070100-
HUDSON VALLEY

CITY           SKY/WX    TMP DP  RH WIND       PRES   REMARKS
WHITE PLAINS     N/A     48  46  93 E16G23    29.80R FOG
NEWBURGH       CLOUDY    52  52 100 E14G23    29.80R
MONTGOMERY     CLOUDY    54  50  86 E10       29.79R
POUGHKEEPSIE   LGT RAIN  56  51  84 NE6       29.80R
ALBANY         LGT RAIN  56  54  93 CALM      29.82R
$$

NJZ001-105-106-008-010-013-015-019>022-104-070100-
NEW JERSEY

CITY           SKY/WX    TMP DP  RH WIND       PRES   REMARKS
NEWARK/LIBERTY LGT RAIN  50  48  93 E9        29.78R FOG
TETERBORO      LGT RAIN  51  47  86 NE9       29.78R FOG
CALDWELL       LGT RAIN  51  48  89 E12       29.78S FOG
MORRISTOWN     DRIZZLE   52  50  93 E10       29.78R FOG
SOMERVILLE     CLOUDY    50  47  89 E10G17    29.75R
SUSSEX         CLOUDY    51  48  89 E9        29.78R
ANDOVER          N/A     50  48  93 E3        29.76S
TRENTON        CLOUDY    50  48  93 E10       29.73R FOG
MILLVILLE      LGT RAIN  51  49  92 SE7       29.70R
ATLANTIC CITY  LGT RAIN  50  48  93 SE9       29.73R
WRIGHTSTOWN    NOT AVBL
TOMS RIVER     CLOUDY    52  46  82 SE6       29.75R
BELMAR         CLOUDY    49  47  93 E9        29.77R
$$

PAZ047>061-062-071-070100-
EASTERN PENNSYLVANIA

CITY           SKY/WX    TMP DP  RH WIND       PRES   REMARKS
PHILADELPHIA   LGT RAIN  53  48  83 SE6       29.71R
ALLENTOWN      CLOUDY    52  47  83 E17G24    29.73R
SCRANTON       CLOUDY    54  48  80 NE7       29.74S
$$

CTZ002-004>006-009-010-012-RIZ004-006-007-MAZ004-011-015-070100-
SOUTHERN NEW ENGLAND
 IN CT

CITY           SKY/WX    TMP DP  RH WIND       PRES   REMARKS
BRADLEY INTL   LGT RAIN  53  50  89 E3        29.86R
HARTFORD       LGT RAIN  54  50  86 SE8       29.87R FOG
DANBURY        LGT RAIN  49  46  90 SE8       29.84R
WTRBRY/OXFORD  RAIN      50  46  87 E12       29.86R FOG
BRIDGEPORT     LGT RAIN  50  47  89 E20       29.82S
MERIDEN        RAIN      52  49  89 VRB3      29.84S
NEW HAVEN      LGT RAIN  48  47  96 E10       29.82F FOG
CHESTER        LGT RAIN  46  46 100 VRB6      29.84F
GROTON         LGT RAIN  48  47  96 E14       29.86S
WILLIMANTIC    RAIN      52  48  86 SE9       29.88R FOG

 IN RI

CITY           SKY/WX    TMP DP  RH WIND       PRES   REMARKS
PROVIDENCE     DRIZZLE   48  45  89 NE7       29.89R
BLOCK ISLAND   CLOUDY    46  45  96 E12       29.88S FOG
WESTERLY       CLOUDY    48  44  86 E13       29.88R

 IN MA

CITY           SKY/WX    TMP DP  RH WIND       PRES   REMARKS
BOSTON         CLOUDY    47  42  83 E12       29.93R
WORCESTER      RAIN      45  42  89 E13       29.88S FOG
WESTFIELD      LGT RAIN  52  50  93 E3        29.86R
PROVINCETOWN   CLOUDY    46  44  93 E9        29.92S
NANTUCKET      CLOUDY    47  43  86 E15       29.87R FOG
$$

ANZ330-335-338-340-345-350-353-355-070100-
COASTAL MARINE OBSERVATIONS


STATION/POSITION TIME  SKY/WX   TEMP    WIND        PRES    VSBY  WAVE
                                AIR SEA DIR/SP/G                  HT/PER
                 (UTC)          (F)     (DEG/KT/KT) (MB)    (MI)  (FT/S)
NY HARB ENTRANCE 2350            48 49   80/ 17/ 21 1007.5          8/ 7
20S FIRE ISLAND  2250            47 47  100/ 16/ 19 1007.4          9/ 8
GREAT SOUTH BAY  2300            48 53   60/ 19/ 25   N/A
23 SSW MONTAUK P 2350            46 46   90/ 19/ 23 1009.2          8/10
15 E BARNEGAT LI 2322               49                N/A           9/ 7
HUDSON CANYON    2250            51 48              1007.3          9/11
KINGS POINT      2300               53              1008.4
EXECUTION ROCKS  NOT AVBL
CENTRAL LI SOUND NOT AVBL
EASTERN LI SOUND NOT AVBL
ROBBINS REEF     2300                               1007.5
$$


>>>>>>>>>>>>>>>>>>>>>>>>>>>> KEY <<<<<<<<<<<<<<<<<<<<<<<<<<<
>                                                          <
>     SKY/WX - SKY CONDITION/PRESENT WEATHER               <
>     TMP    - TEMPERATURE IN FAHRENHEIT                   <
>     DP     - DEWPOINT IN FAHRENHEIT                      <
>     RH     - RELATIVE HUMIDITY IN PERCENT                <
>     WIND   - DIRECTION AND SPEED IN MPH                  <
>     PRES   - MEAN SEA LEVEL PRESSURE IN INCHES OF HG     <
>     WCI    - WIND CHILL INDEX                            <
>     VSB    - VISIBILITY IN MILES                         <
>     HX     - HEAT INDEX                                  <
>     TC     - TEMPERATURE IN CELSIUS                      <
>     VRB    - VARIABLE WIND DIRECTION                     <
>                                                          <
>>>>>>>>>>>>>>>>>>>>>>>>>>>> KEY <<<<<<<<<<<<<<<<<<<<<<<<<<<






USA.gov is the U.S. government's official web portal to all federal, state and local government web resources and services.